W3TMB Weather Reports


Display with metric or nautical units.
time (UTC)temp
F
wind
direction
speed
MPH
gust
MPH
rain 1hr
in
rain 24hr
in
rain mn
in
humidity
%
barometer
mb
20260504024015 44 322 0.0 0.0 0.00 0.00 0.00 78 1010.6
20260504023511 44 322 0.0 0.0 0.00 0.00 0.00 78 1010.4
20260504023007 44 322 0.0 0.0 0.00 0.00 0.00 77 1010.7
20260504022503 44 322 0.0 0.0 0.00 0.00 0.00 75 1010.4
20260504022000 44 322 0.0 0.0 0.00 0.00 0.00 75 1010.5
20260504021457 44 322 0.0 0.0 0.00 0.00 0.00 75 1010.5
20260504020954 44 322 0.0 0.0 0.00 0.00 0.00 75 1010.5
20260504020451 45 322 0.0 0.0 0.00 0.00 0.00 74 1010.5
20260504015948 45 322 0.0 0.0 0.00 0.00 0.00 74 1010.4
20260504015444 45 322 0.0 0.0 0.00 0.00 0.00 74 1010.1
20260504014940 46 322 0.0 0.0 0.00 0.00 0.00 73 1010.3
20260504014436 46 322 0.0 0.0 0.00 0.00 0.00 72 1010.1
20260504013933 46 322 0.0 0.0 0.00 0.00 0.00 72 1010.0
20260504013432 46 322 0.0 0.0 0.00 0.00 0.00 70 1010.3
20260504012927 47 322 0.0 0.0 0.00 0.00 0.00 70 1010.2
20260504012425 47 322 0.0 0.0 0.00 0.00 0.00 69 1010.2
20260504011922 48 322 0.0 0.0 0.00 0.00 0.00 69 1010.2
20260504011419 48 322 0.0 0.0 0.00 0.00 0.00 67 1009.9
20260504010915 48 322 0.0 0.0 0.00 0.00 0.00 66 1010.1
20260504010411 49 322 0.0 0.0 0.00 0.00 0.00 64 1009.9
20260504005907 50 322 0.0 0.0 0.00 0.00 0.00 62 1009.9
20260504005404 50 322 0.0 0.0 0.00 0.00 0.00 59 1010.0
20260504004902 51 322 0.0 0.0 0.00 0.00 0.00 58 1009.6
20260504004400 51 322 0.0 0.0 0.00 0.00 0.00 56 1009.7
20260504003855 53 322 0.0 0.0 0.00 0.00 0.00 55 1009.5
20260504003352 54 321 0.0 1.0 0.00 0.00 0.00 49 1009.7
20260504002849 54 323 0.0 1.0 0.00 0.00 0.00 47 1009.7
20260504002346 55 329 1.0 1.0 0.00 0.00 0.00 46 1009.6
20260504001844 55 321 1.0 1.0 0.00 0.00 0.00 45 1009.5
20260504001341 56 333 1.0 1.0 0.00 0.00 0.00 44 1009.5
20260504000837 56 326 1.0 2.0 0.00 0.00 0.00 43 1009.6
20260504000334 57 306 2.0 3.0 0.00 0.00 0.00 42 1009.5
20260503235832 57 324 2.0 3.0 0.00 0.00 0.00 42 1009.4
20260503235330 57 305 3.0 5.0 0.00 0.00 0.00 41 1009.5
20260503234827 58 326 0.0 2.0 0.00 0.00 0.00 41 1009.3
20260503234324 58 329 1.0 5.0 0.00 0.00 0.00 41 1009.5
20260503233822 58 256 4.0 7.0 0.00 0.00 0.00 39 1009.4
20260503233318 59 240 4.0 6.0 0.00 0.00 0.00 39 1009.5
20260503232814 59 283 3.0 10.0 0.00 0.00 0.00 38 1009.2
20260503232312 59 297 4.0 8.0 0.00 0.00 0.00 38 1009.3
20260503231810 59 338 4.0 10.0 0.00 0.00 0.00 38 1009.3
20260503231307 60 334 3.0 8.0 0.00 0.00 0.00 38 1009.3
20260503230802 60 270 2.0 9.0 0.00 0.00 0.00 37 1009.3
20260503230300 60 278 5.0 8.0 0.00 0.00 0.00 37 1009.3
20260503225757 60 309 4.0 7.0 0.00 0.00 0.00 37 1009.1
20260503225252 61 271 2.0 5.0 0.00 0.00 0.00 37 1009.1
20260503224749 61 326 1.0 7.0 0.00 0.00 0.00 37 1009.1
20260503224247 60 307 6.0 8.0 0.00 0.00 0.00 36 1009.1
20260503223744 60 258 3.0 7.0 0.00 0.00 0.00 39 1009.2
20260503223242 61 260 4.0 7.0 0.00 0.00 0.00 36 1009.1
20260503222738 61 320 4.0 6.0 0.00 0.00 0.00 37 1009.1
20260503222236 60 256 4.0 7.0 0.00 0.00 0.00 37 1009.1
20260503221734 60 333 2.0 7.0 0.00 0.00 0.00 39 1009.2
20260503221232 60 236 5.0 9.0 0.00 0.00 0.00 38 1009.3
20260503220728 60 235 2.0 7.0 0.00 0.00 0.00 39 1009.4
20260503220225 60 314 7.0 14.0 0.00 0.00 0.00 38 1009.2
20260503215721 60 346 5.0 6.0 0.00 0.00 0.00 37 1009.3
20260503215219 60 35 9.0 11.0 0.00 0.00 0.00 36 1009.6
20260503214717 60 247 5.0 10.0 0.00 0.00 0.00 37 1009.4
20260503214213 60 239 3.0 10.0 0.00 0.00 0.00 37 1009.1
20260503213711 60 330 2.0 5.0 0.00 0.00 0.00 37 1009.2
20260503213208 60 323 5.0 10.0 0.00 0.00 0.00 37 1009.5
20260503212705 61 245 4.0 11.0 0.00 0.00 0.00 36 1009.1
20260503212203 62 308 3.0 6.0 0.00 0.00 0.00 36 1009.2
20260503211700 62 342 2.0 8.0 0.00 0.00 0.00 36 1009.3
20260503211155 61 277 3.0 7.0 0.00 0.00 0.00 37 1009.2
20260503210652 60 222 3.0 7.0 0.00 0.00 0.00 37 1009.1
20260503210149 60 312 2.0 8.0 0.00 0.00 0.00 36 1009.0
20260503205644 61 311 4.0 8.0 0.00 0.00 0.00 35 1009.0
20260503205141 61 241 3.0 9.0 0.00 0.00 0.00 35 1009.1
20260503204637 60 337 5.0 11.0 0.00 0.00 0.00 37 1009.2
20260503204135 61 262 9.0 13.0 0.00 0.00 0.00 35 1009.4
20260503203632 61 22 4.0 7.0 0.00 0.00 0.00 36 1009.1
20260503203130 61 300 5.0 13.0 0.00 0.00 0.00 35 1009.3
20260503202627 62 337 5.0 9.0 0.00 0.00 0.00 35 1009.3
20260503202125 61 344 1.0 8.0 0.00 0.00 0.00 36 1009.3
20260503201623 61 347 1.0 6.0 0.00 0.00 0.00 37 1009.1
20260503201120 61 302 6.0 13.0 0.00 0.00 0.00 36 1009.6
20260503200616 61 294 5.0 8.0 0.00 0.00 0.00 35 1009.4
20260503200112 62 258 2.0 5.0 0.00 0.00 0.00 36 1009.3
20260503195610 61 2 3.0 7.0 0.00 0.00 0.00 38 1009.6
20260503195106 60 243 3.0 8.0 0.00 0.00 0.00 38 1009.6
20260503194604 61 257 2.0 8.0 0.00 0.00 0.00 38 1009.5
20260503194058 61 337 5.0 11.0 0.00 0.00 0.00 36 1009.8
20260503193555 59 238 3.0 8.0 0.00 0.00 0.00 37 1010.0
20260503193050 59 323 7.0 8.0 0.00 0.00 0.00 38 1010.1
20260503192547 59 330 2.0 7.0 0.00 0.00 0.00 37 1009.8
20260503192043 59 351 5.0 7.0 0.00 0.00 0.00 37 1009.9
20260503191540 59 346 3.0 7.0 0.00 0.00 0.00 38 1009.9
20260503191036 60 237 6.0 9.0 0.00 0.00 0.00 36 1010.0
20260503190533 59 288 1.0 9.0 0.00 0.00 0.00 38 1010.0
20260503190031 59 3 2.0 3.0 0.00 0.00 0.00 38 1010.3
20260503185527 60 340 3.0 3.0 0.00 0.00 0.00 37 1010.3
20260503185027 61 247 3.0 13.0 0.00 0.00 0.00 35 1010.3
20260503184523 60 292 2.0 8.0 0.00 0.00 0.00 37 1010.2
20260503184020 60 345 7.0 9.0 0.00 0.00 0.00 37 1010.4
20260503183516 60 262 5.0 9.0 0.00 0.00 0.00 36 1010.3
20260503183014 60 298 4.0 11.0 0.00 0.00 0.00 38 1010.5
20260503182512 59 336 3.0 7.0 0.00 0.00 0.00 38 1010.5
20260503182009 58 358 4.0 8.0 0.00 0.00 0.00 40 1010.4
20260503181507 58 211 2.0 6.0 0.00 0.00 0.00 39 1010.5
20260503181002 59 337 3.0 6.0 0.00 0.00 0.00 42 1010.2
20260503180500 57 322 5.0 6.0 0.00 0.00 0.00 40 1010.4
20260503175957 58 2 3.0 13.0 0.00 0.00 0.00 37 1010.5
20260503175455 59 304 3.0 9.0 0.00 0.00 0.00 38 1010.6
20260503174951 58 319 3.0 6.0 0.00 0.00 0.00 41 1010.6
20260503174449 57 335 4.0 9.0 0.00 0.00 0.00 39 1010.4
20260503173944 57 309 2.0 6.0 0.00 0.00 0.00 39 1010.6
20260503173440 58 312 3.0 11.0 0.00 0.00 0.00 37 1010.6
20260503172937 59 322 3.0 5.0 0.00 0.00 0.00 38 1010.5
20260503172434 57 37 4.0 5.0 0.00 0.00 0.00 37 1010.7
20260503171931 56 258 3.0 10.0 0.00 0.00 0.00 39 1010.6
20260503171427 57 10 3.0 5.0 0.00 0.00 0.00 38 1010.6
20260503170925 57 355 5.0 7.0 0.00 0.00 0.00 39 1010.9
20260503170421 58 283 3.0 6.0 0.00 0.00 0.00 37 1010.8
20260503150814 51 324 2.0 5.0 0.00 0.00 0.00 46 1012.6
20260503150309 51 330 5.0 13.0 0.00 0.00 0.00 46 1012.7
20260503140234 50 348 6.0 10.0 0.00 0.00 0.00 50 1013.3
20260503131203 49 50 3.0 3.0 0.00 0.00 0.00 54 1013.4
20260503130701 48 350 1.0 5.0 0.00 0.00 0.00 61 1013.5
20260503130158 48 327 1.0 3.0 0.00 0.00 0.00 61 1013.3
20260503120124 43 305 1.0 3.0 0.00 0.00 0.00 65 1013.4
20260503110551 39 282 2.0 2.0 0.00 0.00 0.00 78 1013.0
20260503090438 36 328 0.0 1.0 0.00 0.00 0.00 82 1012.3
20260503081404 39 284 1.0 1.0 0.00 0.00 0.00 73 1012.1
20260503080901 39 331 0.0 0.0 0.00 0.00 0.00 72 1012.0
20260503080358 40 316 1.0 1.0 0.00 0.00 0.00 71 1012.1
20260503072835 41 325 1.0 2.0 0.00 0.00 0.00 67 1011.6
20260503072332 41 308 3.0 3.0 0.00 0.00 0.00 68 1011.6
20260503071828 41 316 1.0 2.0 0.00 0.00 0.00 67 1011.6
20260503071326 41 320 0.0 3.0 0.00 0.00 0.00 67 1011.5
20260503070821 41 309 0.0 2.0 0.00 0.00 0.00 66 1011.6
20260503070320 41 320 1.0 1.0 0.00 0.00 0.00 67 1011.6
20260503060244 43 340 1.0 2.0 0.00 0.00 0.00 63 1011.6
20260503054731 44 348 3.0 3.0 0.00 0.00 0.00 62 1011.5
20260503054228 44 357 3.0 6.0 0.00 0.00 0.00 60 1011.7
20260503053726 44 330 1.0 2.0 0.00 0.00 0.00 62 1011.7
20260503053225 44 350 1.0 2.0 0.00 0.00 0.00 61 1011.8
20260503052721 44 10 2.0 5.0 0.00 0.00 0.00 61 1011.7
20260503052217 44 329 3.0 3.0 0.00 0.00 0.00 60 1011.8
20260503051713 44 345 2.0 3.0 0.00 0.00 0.00 62 1011.7
20260503051211 44 348 1.0 2.0 0.00 0.00 0.00 61 1011.7
20260503050707 44 341 1.0 2.0 0.00 0.00 0.00 61 1011.8
20260503050203 43 313 2.0 3.0 0.00 0.00 0.00 62 1011.9
20260503045701 43 342 0.0 1.0 0.00 0.00 0.00 67 1011.9
20260503045158 44 328 1.0 2.0 0.00 0.00 0.00 67 1011.8
20260503044655 44 332 1.0 1.0 0.00 0.00 0.00 63 1012.1
20260503044152 43 321 1.0 1.0 0.00 0.00 0.00 67 1011.8
20260503043649 44 331 0.0 0.0 0.00 0.00 0.00 66 1011.8
20260503043146 44 328 0.0 1.0 0.00 0.00 0.00 64 1011.9
20260503042642 44 338 0.0 1.0 0.00 0.00 0.00 64 1011.7
20260503042138 44 339 1.0 1.0 0.00 0.00 0.00 60 1011.8
20260503041635 44 332 1.0 2.0 0.00 0.00 0.00 59 1012.0
20260503041133 44 322 1.0 1.0 0.00 0.00 0.00 61 1011.9
20260503040630 44 332 2.0 2.0 0.00 0.00 0.00 59 1011.9
20260503040127 44 341 1.0 3.0 0.00 0.00 0.00 61 1012.0
20260503035624 44 339 1.0 1.0 0.00 0.03 0.03 65 1011.8
20260503035122 44 337 0.0 1.0 0.00 0.03 0.03 63 1012.0
20260503034619 44 340 0.0 0.0 0.00 0.03 0.03 65 1011.8
20260503034116 45 340 0.0 1.0 0.00 0.03 0.03 66 1012.2
20260503033613 45 340 0.0 0.0 0.00 0.03 0.03 60 1012.0
20260503033111 45 340 0.0 0.0 0.00 0.03 0.03 59 1012.1
20260503032609 45 333 1.0 2.0 0.00 0.03 0.03 58 1012.0
20260503032107 45 338 0.0 2.0 0.00 0.03 0.03 61 1012.1
20260503031604 45 332 0.0 1.0 0.00 0.03 0.03 63 1012.0
20260503031102 45 334 0.0 1.0 0.00 0.03 0.03 63 1012.1
20260503030557 44 329 0.0 2.0 0.00 0.03 0.03 67 1012.0
20260503030054 44 335 0.0 1.0 0.00 0.03 0.03 74 1011.9
20260503025551 44 7 0.0 1.0 0.00 0.03 0.03 73 1011.9
20260503025049 44 343 0.0 0.0 0.00 0.03 0.03 73 1012.3
20260503024545 44 344 0.0 0.0 0.00 0.03 0.03 75 1012.1